GEFSSE_500_meanwind_120.txt.gz
Wind_Speed
7 8 8 9 9 10 11 11 12 12 13 14 15 15 16 16 16 17 17 17 17 17 17 17 17 18 18 18 18 18 18 18 18 18 18 18 18 18 18 17 17 17 17
7 8 9 9 9 10 11 12 12 13 13 14 15 15 16 16 17 17 17 17 18 18 18 18 18 18 18 18 18 18 18 19 19 19 19 19 19 19 19 18 18 18 18
7 8 8 9 9 10 10 11 12 13 14 14 15 15 16 16 17 17 18 18 18 18 18 18 18 18 18 18 19 19 19 19 19 20 20 20 20 20 20 20 19 19 19
7 8 8 9 10 10 11 11 12 13 14 14 15 16 16 17 18 18 18 18 19 19 19 19 19 19 19 19 19 19 19 20 20 20 20 20 20 20 20 20 20 20 20
8 9 9 10 10 11 12 12 13 13 14 15 15 16 17 18 18 19 19 19 20 20 20 20 20 20 20 20 20 20 20 20 20 21 21 21 21 21 21 21 21 21 21
9 10 10 11 12 13 13 14 14 15 15 16 16 17 18 19 19 19 20 20 20 20 20 21 21 21 21 21 21 21 21 21 21 21 22 22 22 22 22 22 22 22 22
10 11 11 12 13 14 15 16 16 16 17 17 18 18 19 19 20 20 20 21 21 21 21 22 22 22 22 22 22 22 22 22 22 23 23 23 23 23 23 23 23 23 23
12 12 12 13 13 14 15 16 17 17 18 18 19 19 19 20 20 21 21 22 22 22 23 23 23 23 24 24 24 24 24 24 24 24 24 24 24 24 24 24 24 24 24
13 13 13 14 14 15 15 16 17 18 18 19 19 19 20 20 21 22 22 23 23 24 24 25 25 25 25 25 26 26 26 26 26 26 26 26 26 26 26 26 26 26 26
14 14 15 15 16 16 17 17 17 18 19 19 20 20 21 22 23 23 24 24 25 25 26 26 26 27 27 27 27 27 28 28 28 28 29 29 29 29 29 29 29 29 29
14 15 16 16 17 17 17 18 19 19 20 20 21 21 22 23 24 24 25 25 26 26 27 27 28 28 28 29 29 29 30 30 31 31 32 32 32 32 33 33 33 33 33
15 16 17 17 18 18 18 19 20 21 21 22 22 23 23 24 25 26 26 27 27 28 28 29 29 30 30 31 31 32 32 33 33 34 35 35 35 36 36 36 37 37 37
16 17 17 18 18 19 19 20 20 21 22 23 23 24 24 25 26 27 27 28 29 29 29 30 30 31 32 32 33 34 34 35 36 36 37 38 38 39 40 40 40 41 41
16 17 18 18 19 19 20 20 21 21 22 23 24 24 25 26 26 27 28 29 29 30 30 31 32 32 33 34 35 35 36 37 37 38 39 40 41 42 42 43 44 44 44
17 17 18 18 19 20 20 21 21 22 22 23 24 25 26 26 27 28 28 29 30 30 31 32 33 33 34 35 36 37 38 39 39 40 41 42 42 43 44 45 46 46 47
18 18 18 19 19 20 20 21 22 22 23 24 24 25 26 27 27 28 29 30 31 31 32 33 34 34 35 36 37 38 38 39 40 41 42 43 44 45 46 47 48 48 49
18 19 19 19 20 20 21 22 22 23 24 24 25 26 26 27 27 28 29 30 31 31 32 33 34 35 35 36 37 38 39 40 41 42 43 44 45 46 47 48 49 50 51
19 19 20 20 21 21 22 22 23 24 24 25 26 26 27 27 28 29 29 31 31 32 34 35 36 36 37 38 39 39 40 41 42 43 44 45 47 48 49 50 51 52 53
19 20 20 21 21 22 23 23 23 24 25 26 27 28 28 29 30 30 32 33 34 35 36 37 38 38 39 40 41 41 42 43 44 46 47 48 49 50 51 52 54 54 55
20 20 21 22 22 23 23 24 24 25 26 27 28 29 30 31 32 33 34 35 36 37 38 39 40 41 42 43 44 44 45 46 47 49 50 51 52 53 54 55 57 58 59
20 21 22 22 23 24 24 25 26 27 28 29 30 30 31 32 34 35 36 37 38 39 40 42 43 44 45 47 47 47 47 48 49 51 52 53 54 56 57 58 59 60 61
21 22 22 23 24 25 26 27 28 29 30 31 32 33 34 35 36 38 39 40 41 42 43 45 46 47 48 49 51 51 50 50 51 53 54 56 57 59 60 61 62 63 64
22 23 24 24 25 26 28 29 30 31 32 33 34 35 37 38 39 40 41 42 44 45 46 47 49 50 51 52 55 56 57 56 55 54 56 58 60 61 63 64 65 67 68
23 24 25 26 27 28 30 31 32 33 34 35 36 38 39 40 42 43 44 45 46 48 49 51 52 53 55 55 57 59 61 62 63 61 59 60 62 63 65 67 68 70 71
25 26 27 28 29 30 32 33 34 35 36 37 39 40 41 43 44 45 46 48 50 51 53 54 55 57 58 59 60 62 63 65 67 68 67 65 65 66 68 69 71 73 74
26 27 28 30 31 32 34 35 36 37 38 39 41 42 44 45 46 48 49 51 52 54 55 56 58 60 61 62 64 66 67 68 69 71 72 71 71 70 70 72 73 75 76

GEFSSE_500_meanwind_126.txt.gz
Wind_Speed
10 10 10 10 10 11 11 12 12 13 13 14 14 14 14 15 15 16 16 16 16 17 17 17 18 19 19 19 19 19 19 19 20 20 20 20 20 20 20 20 20 20 20
10 10 11 11 11 11 12 12 13 13 14 14 15 15 15 15 16 16 17 17 17 18 18 19 19 20 20 20 20 21 21 21 21 21 22 22 22 22 22 22 22 22 22
10 10 11 11 12 13 13 13 14 14 15 15 15 16 16 16 17 17 18 18 19 19 19 20 20 21 21 21 22 22 22 22 23 23 23 23 24 24 24 24 24 24 24
9 10 11 11 12 13 13 14 14 14 15 15 16 16 17 17 18 18 19 19 20 20 21 21 21 22 22 22 23 23 23 24 24 24 24 25 25 25 25 25 25 25 25
9 10 11 12 12 13 14 14 15 15 15 16 16 17 17 18 18 19 20 20 21 21 22 22 22 23 23 24 24 24 25 25 25 25 25 25 26 26 26 26 26 26 26
9 10 11 12 13 14 15 16 16 16 17 17 17 18 18 19 19 20 21 21 22 22 22 23 23 24 24 25 25 25 26 26 26 26 26 27 27 27 27 27 27 27 27
10 11 12 13 14 15 15 16 17 17 18 18 18 19 20 20 21 21 22 22 22 23 23 23 24 24 25 25 26 26 27 27 27 27 28 28 28 28 28 28 28 28 28
11 12 13 14 15 15 16 16 17 18 18 19 19 20 21 21 22 22 22 22 23 23 24 25 25 25 26 26 27 27 28 28 29 29 29 29 29 29 29 29 29 29 29
12 13 13 14 15 16 16 17 17 18 18 19 20 20 21 22 22 23 23 24 24 25 25 26 26 27 27 28 28 29 29 29 30 30 30 30 31 31 31 31 31 31 31
13 14 14 15 16 16 17 17 18 18 19 19 20 21 22 23 23 24 24 25 26 26 27 27 28 28 29 29 30 30 30 31 31 31 31 31 32 32 32 33 33 33 33
14 15 15 16 16 17 18 18 18 19 19 20 21 22 23 23 24 25 25 26 27 27 28 28 29 29 30 30 30 31 31 31 32 32 33 33 33 34 34 35 35 35 36
16 16 16 17 17 17 18 18 19 19 20 20 21 22 23 24 24 25 26 27 27 28 29 29 30 30 31 31 31 32 32 33 33 34 34 35 35 36 37 37 38 38 38
17 17 17 18 18 18 18 19 19 20 20 21 21 22 23 23 24 25 26 27 28 29 30 30 31 31 32 32 33 33 34 35 35 36 37 37 38 38 39 40 40 41 41
18 18 18 18 18 19 19 20 20 21 21 22 22 23 24 25 25 26 27 28 28 29 30 31 32 32 33 33 34 34 35 35 36 37 38 39 39 40 41 41 42 42 43
19 19 19 19 19 19 20 20 20 21 22 22 23 24 25 26 26 27 28 28 29 29 30 31 32 32 33 34 35 35 36 37 38 38 39 40 41 41 42 43 43 44 44
19 19 20 20 20 20 20 20 21 22 23 23 24 25 25 26 27 28 29 29 30 30 31 32 32 33 34 35 36 36 37 38 39 40 40 41 42 42 43 44 45 45 46
20 20 20 20 21 21 21 22 22 23 24 24 25 25 26 27 28 29 29 30 31 32 33 33 34 35 36 36 37 38 39 39 40 41 42 43 44 45 45 46 46 47 48
21 21 21 21 21 22 22 23 23 24 24 25 26 26 27 28 29 30 31 31 32 33 34 35 36 37 38 38 39 40 41 42 42 43 44 45 46 47 48 49 49 50 50
22 22 22 22 22 22 23 24 24 25 26 26 27 27 28 29 30 31 32 33 34 35 36 37 38 38 39 40 41 41 42 43 44 45 46 47 48 49 50 51 52 52 53
23 23 23 23 23 24 24 25 25 26 27 28 28 29 30 31 32 32 33 34 35 36 38 39 40 41 42 42 43 43 44 45 46 47 48 50 51 52 53 53 54 55 55
24 24 24 24 25 25 26 26 27 27 28 29 30 31 32 33 33 34 35 37 38 39 40 42 42 43 44 45 45 45 46 47 48 50 51 52 53 54 55 56 57 57 58
26 26 26 26 26 27 27 27 28 29 30 31 32 33 34 34 35 36 38 39 40 42 43 44 45 46 47 48 49 49 48 48 49 51 52 54 55 56 58 59 59 60 61
27 27 27 27 28 28 29 29 30 30 32 33 34 35 36 37 38 39 40 42 43 44 45 46 47 48 49 50 52 53 53 53 52 51 52 54 56 57 59 60 62 63 64
28 28 28 29 29 29 30 31 32 32 33 34 36 36 37 38 40 41 42 44 45 46 47 48 50 51 51 52 54 55 57 58 59 57 55 56 57 58 60 61 63 65 66
29 29 29 30 30 31 32 33 34 35 35 36 37 38 39 40 42 43 44 46 47 48 49 50 51 52 54 55 56 57 58 60 62 63 61 60 60 60 62 63 64 65 67
30 30 31 31 32 33 34 35 36 37 37 38 39 40 41 42 44 45 46 48 49 50 51 52 53 55 56 57 59 60 61 62 63 65 65 65 65 64 65 65 66 67 68

GEFSSE_500_meanwind_132.txt.gz
Wind_Speed
11 11 11 11 12 13 13 14 14 14 15 16 16 17 17 17 18 18 18 18 18 19 19 20 20 20 20 20 20 21 21 21 21 21 21 21 21 21 21 21 21 21 21
11 11 12 12 12 13 14 14 15 15 16 16 17 18 18 19 19 19 19 19 19 19 20 20 20 21 21 21 21 22 22 22 22 22 22 22 22 22 23 23 23 23 23
10 11 12 12 13 14 14 15 15 16 17 17 18 18 19 19 20 20 20 20 20 20 20 21 21 21 22 22 22 22 23 23 23 23 23 23 23 24 24 24 25 25 25
9 10 11 12 13 14 15 15 16 17 17 18 19 19 19 20 20 20 20 21 21 21 21 22 22 22 22 23 23 23 23 23 24 24 24 25 25 25 25 26 26 26 26
9 10 11 12 13 13 14 15 16 16 17 18 19 19 20 20 20 20 20 21 21 21 22 22 22 22 23 23 23 24 24 24 25 25 25 25 26 26 26 26 27 27 27
10 11 12 12 13 14 15 15 16 17 17 18 19 20 20 20 21 21 21 21 21 21 22 22 22 23 23 23 24 24 24 24 25 25 26 26 27 27 27 28 28 28 28
10 11 12 13 14 14 15 16 17 17 18 19 19 19 20 20 20 21 21 21 21 21 22 22 22 22 23 23 24 24 25 25 26 26 27 27 28 28 28 29 29 29 29
11 12 12 13 14 15 16 17 17 18 19 19 19 20 20 20 21 21 21 21 22 22 22 22 22 23 23 24 24 25 25 26 27 27 28 28 29 29 30 30 30 30 30
12 13 14 14 15 15 16 17 18 18 19 20 20 20 20 20 21 21 22 22 22 23 23 23 24 24 25 25 26 26 27 27 28 29 29 30 30 31 31 31 31 32 32
13 14 14 15 16 16 17 17 18 19 19 20 20 20 20 21 21 22 22 22 23 23 24 24 25 26 26 27 27 28 28 29 29 29 30 30 31 31 32 32 33 33 33
14 15 15 16 16 17 18 18 19 19 20 20 20 21 21 22 22 22 23 23 24 24 24 25 26 26 27 28 28 29 30 30 31 31 31 32 32 33 33 34 34 35 35
15 16 16 17 17 18 18 19 19 20 20 21 21 21 22 22 23 23 23 24 24 25 25 26 26 27 27 28 29 29 30 31 31 32 32 33 34 34 35 35 36 37 37
16 17 17 18 18 19 19 20 20 21 21 22 22 22 23 23 23 23 24 24 25 25 26 26 27 27 27 28 29 29 30 31 32 32 33 34 34 35 36 36 37 38 39
17 18 18 19 19 20 20 21 21 22 22 22 23 23 23 23 24 25 25 25 25 26 26 27 27 27 28 29 30 30 31 32 32 33 33 34 35 36 37 38 38 39 39
19 19 19 20 20 21 21 21 22 22 22 23 23 23 24 24 25 25 26 26 26 27 27 27 28 29 29 30 31 32 33 33 34 35 35 36 36 37 38 39 39 40 41
20 20 20 21 21 21 22 22 23 23 23 24 24 24 24 25 26 26 26 27 27 28 28 29 29 30 31 31 32 33 34 35 36 36 37 38 38 39 40 40 41 42 43
21 21 21 22 22 22 22 23 23 24 24 24 25 25 25 26 27 27 27 28 29 29 30 30 31 31 32 33 33 34 35 36 37 38 39 40 40 41 42 42 43 44 44
22 22 22 22 22 23 23 24 24 25 25 25 25 26 27 27 28 28 29 29 30 30 31 32 32 33 34 35 36 37 38 39 40 41 42 43 43 44 45 45 46 46 47
23 23 23 23 23 24 25 25 25 25 26 26 26 27 28 28 29 29 30 31 31 32 33 33 34 35 36 37 38 39 41 42 43 44 45 45 46 47 48 48 49 49 50
23 23 24 24 24 25 25 26 26 26 27 27 28 28 29 30 31 31 32 33 33 34 35 36 37 38 39 40 41 42 43 44 45 46 47 48 48 49 50 51 51 52 52
24 24 24 25 25 25 26 27 27 27 28 29 29 30 31 31 32 33 34 34 35 36 37 38 39 40 41 42 43 43 44 45 46 47 48 49 50 51 52 53 53 54 55
25 25 25 25 26 27 27 28 28 28 29 29 30 31 32 33 34 34 35 36 37 38 39 40 41 42 43 44 45 46 46 46 46 47 49 50 52 53 54 55 56 57 58
26 26 26 26 27 28 28 29 29 30 30 31 32 33 34 35 35 36 37 38 39 40 41 42 43 44 45 46 47 48 48 48 47 47 48 50 52 54 55 57 58 59 60
27 27 27 28 28 29 29 30 31 31 32 33 34 35 35 36 37 38 39 40 41 42 43 44 45 46 47 48 49 50 51 51 52 50 50 51 52 54 55 57 58 60 61
28 28 28 29 29 30 30 31 32 33 33 34 35 36 37 38 39 40 41 42 43 44 44 45 47 48 49 50 51 51 52 53 54 55 54 54 55 56 57 58 59 60 61
29 29 29 30 30 31 31 32 33 34 35 36 37 38 38 39 40 41 43 43 44 45 46 47 49 50 51 52 53 54 55 56 57 58 58 58 59 59 60 61 61 62 63

GEFSSE_500_meanwind_138.txt.gz
Wind_Speed
10 10 11 11 12 12 12 13 13 14 15 15 15 15 16 16 17 17 17 18 18 19 19 19 20 20 20 20 20 20 20 20 20 20 20 20 20 20 20 20 20 20 20
10 11 11 12 12 13 13 13 14 15 15 16 16 17 17 17 18 18 18 19 19 19 19 20 20 21 21 21 22 22 22 22 21 21 21 21 21 21 21 22 22 22 22
9 10 11 12 12 13 13 14 14 15 16 16 17 17 18 18 18 18 19 19 19 20 20 20 21 21 21 22 22 23 23 23 22 22 22 22 22 22 23 23 23 23 23
9 10 11 12 12 13 13 14 15 15 16 16 17 17 18 18 19 19 20 20 20 21 21 21 22 22 22 23 23 23 23 23 23 23 23 24 24 24 24 24 24 25 25
9 10 11 12 12 13 14 15 15 15 16 16 17 17 18 18 19 19 20 20 20 21 21 22 22 22 23 23 23 24 24 24 25 24 24 25 25 25 26 26 26 26 26
10 11 12 13 13 14 15 15 16 16 17 17 17 18 18 19 19 20 20 21 21 22 22 22 22 22 23 23 24 24 25 25 26 26 26 26 26 26 27 27 27 28 28
11 12 13 13 14 15 15 16 16 17 17 18 19 19 19 19 20 20 21 21 22 22 22 22 23 23 24 24 24 25 25 25 26 26 26 27 27 27 28 28 28 29 29
12 13 13 14 14 15 16 16 17 17 17 18 19 19 20 20 21 21 21 22 22 23 23 23 24 24 25 25 26 26 26 27 27 27 27 28 28 29 29 29 30 30 30
13 14 14 15 15 16 17 17 17 18 18 19 19 20 20 21 21 21 22 22 23 23 24 24 25 25 25 26 27 27 28 28 28 29 29 30 30 30 31 31 31 32 32
14 15 15 16 16 17 17 18 18 18 19 19 20 20 21 21 22 22 23 23 24 24 25 25 25 26 27 27 28 28 28 29 29 30 30 31 31 31 32 32 33 33 34
15 16 16 16 17 18 18 19 19 19 20 20 21 21 21 21 22 23 24 24 24 25 25 26 26 27 27 28 28 29 29 29 30 30 31 31 32 32 32 33 33 34 35
17 17 17 18 18 18 19 19 20 20 21 21 22 22 22 23 23 23 24 25 25 25 26 26 27 27 28 28 28 29 29 30 30 30 31 32 32 33 33 33 34 34 35
18 19 19 19 19 19 19 20 20 21 21 22 22 22 23 23 24 24 25 25 26 26 26 27 27 28 28 28 29 29 30 30 30 31 31 32 33 33 34 34 35 35 36
20 20 20 20 20 21 21 21 21 21 22 22 23 23 24 24 25 25 25 26 26 27 27 28 28 29 29 29 29 30 30 31 31 31 32 33 33 34 34 35 36 36 37
21 21 21 21 21 22 22 22 22 22 23 23 24 24 25 25 26 26 26 27 27 27 28 28 29 29 30 30 31 31 31 32 32 32 33 33 34 34 35 36 36 37 37
22 22 23 23 23 23 23 23 23 23 24 24 25 25 25 26 26 26 27 27 28 28 29 29 30 30 30 31 31 32 32 33 33 34 34 35 35 36 37 37 38 38 39
23 23 24 24 24 24 24 24 24 24 25 25 25 26 26 26 27 27 27 28 29 29 30 30 31 31 31 32 32 33 33 34 35 35 36 37 37 38 38 39 40 41 41
25 25 25 25 26 26 25 26 26 26 25 26 26 27 27 28 28 28 28 29 30 30 31 31 32 32 33 33 34 35 35 36 36 37 38 38 39 40 40 41 42 43 44
26 26 26 26 27 27 27 26 26 27 27 27 27 28 28 29 29 30 30 30 31 31 32 32 33 34 34 35 35 36 36 37 38 39 39 40 41 42 42 43 44 45 45
27 27 27 27 27 27 28 27 28 28 28 28 29 29 29 30 30 31 31 31 32 33 33 34 34 35 36 36 36 37 38 39 40 40 41 42 43 43 44 44 45 45 46
28 28 28 28 28 28 28 28 29 29 29 30 30 30 30 31 31 32 33 33 34 34 35 36 36 37 38 38 38 39 40 41 41 42 43 44 44 45 45 46 46 47 48
29 29 29 29 29 29 29 30 30 30 30 31 31 32 32 32 33 33 34 35 35 36 37 37 38 39 40 41 41 41 41 41 42 43 44 45 46 46 47 48 48 49 50
30 30 30 30 30 30 31 31 31 32 32 32 32 33 33 34 34 35 35 36 37 38 39 39 40 41 42 42 43 43 43 43 42 42 44 45 46 47 48 49 50 51 51
30 31 31 31 31 31 32 32 33 33 33 33 34 34 35 35 35 36 36 37 39 40 40 41 42 43 43 44 44 45 46 47 47 45 45 46 47 48 49 51 52 53 54
31 31 31 32 32 32 33 33 33 34 34 35 35 36 36 36 37 37 38 39 40 41 42 43 44 45 45 46 46 47 48 49 50 50 49 48 49 50 51 53 54 55 57
31 31 32 32 32 33 33 34 34 35 35 36 36 37 37 37 38 39 39 40 41 43 44 45 46 46 47 48 49 50 50 51 52 53 53 53 53 53 55 56 58 59 60

GEFSSE_500_meanwind_144.txt.gz
Wind_Speed
5 6 6 7 7 8 8 9 10 11 11 12 13 14 14 15 16 16 16 17 17 17 18 18 18 19 19 19 20 20 21 21 22 23 23 23 23 23 24 24 24 24 24
4 5 6 6 7 8 9 10 11 11 12 13 14 15 15 16 17 17 17 18 18 19 19 20 20 20 21 21 21 22 22 23 23 23 24 24 24 24 25 25 25 25 26
4 5 5 6 7 8 9 10 11 12 13 14 15 16 16 17 17 18 19 19 19 20 20 20 21 21 22 22 22 23 23 24 24 24 24 25 25 25 26 26 26 26 26
4 5 6 6 7 8 9 10 11 13 14 14 15 16 16 17 17 18 19 19 20 20 20 21 21 22 22 22 23 23 23 24 24 24 25 25 25 26 26 27 27 27 27
5 6 7 8 8 9 10 11 12 13 14 15 16 16 17 17 18 18 19 20 20 21 21 22 22 22 22 22 23 23 23 24 24 25 25 25 26 26 26 27 27 28 28
7 8 8 9 10 11 12 12 13 14 15 16 16 17 18 19 19 20 20 20 20 21 21 22 22 22 23 23 23 24 24 24 25 25 25 26 26 27 27 27 28 28 29
8 9 9 10 11 12 13 14 14 15 16 17 17 18 19 19 20 20 20 21 21 22 22 22 23 23 23 23 24 24 25 25 26 26 27 27 27 28 28 28 28 29 29
9 10 10 11 12 12 13 14 15 15 16 17 17 18 19 20 20 20 21 21 22 22 22 23 23 23 24 24 24 25 25 26 27 27 28 28 29 29 29 30 30 31 31
10 11 12 12 13 13 14 15 15 16 17 17 18 19 19 20 20 21 21 21 22 22 23 23 24 24 25 25 25 26 26 27 28 28 28 29 29 30 30 31 31 32 32
12 12 13 13 14 14 15 16 16 17 18 18 19 20 20 20 21 21 21 22 22 23 23 24 24 25 25 25 26 26 27 27 28 28 29 29 30 30 31 31 32 32 33
13 13 14 14 15 15 16 17 17 18 18 19 19 20 21 21 21 21 22 22 23 23 24 24 25 25 25 25 26 26 27 27 28 28 29 29 30 30 31 31 32 33 33
14 15 16 16 16 16 17 18 18 19 19 19 20 21 21 22 22 22 23 23 23 24 24 25 25 25 26 26 26 27 27 28 28 29 29 30 30 31 31 32 32 33 34
16 16 17 17 18 18 18 19 20 20 20 21 21 21 22 22 23 23 23 24 24 25 25 25 26 26 26 27 27 27 28 29 29 30 30 31 31 32 32 33 34 34 35
17 18 18 18 19 20 20 20 21 21 22 22 22 22 22 23 23 24 24 24 25 25 25 26 26 26 27 27 28 28 29 29 30 30 31 32 32 33 34 34 35 35 36
18 18 19 19 20 20 21 22 22 22 23 23 23 24 24 24 24 25 25 25 25 26 26 26 27 27 28 28 29 29 29 29 30 31 32 32 33 34 35 35 36 37 38
20 20 20 20 21 21 22 22 23 24 24 24 25 25 25 25 25 25 26 26 27 27 27 27 28 28 28 29 29 30 30 31 31 32 33 34 35 36 36 37 38 38 39
21 21 21 22 22 22 23 23 24 25 25 26 26 26 26 26 26 27 27 28 28 28 28 28 29 29 29 30 31 31 32 32 33 34 35 35 36 37 38 38 39 40 40
22 23 23 23 23 24 24 24 25 25 26 27 27 27 27 27 28 28 28 29 29 29 29 29 30 30 31 31 32 33 33 34 35 35 36 37 37 38 39 39 40 41 41
23 24 24 25 25 25 25 26 26 26 27 28 28 28 28 29 29 30 30 30 30 30 31 31 31 32 32 33 33 34 34 35 36 37 38 38 39 40 40 41 42 42 43
24 25 25 26 26 26 27 27 27 28 28 29 29 29 30 30 30 31 31 31 32 32 32 32 33 33 33 34 34 35 36 37 37 38 39 40 41 41 42 42 43 44 45
26 26 27 27 27 28 28 28 29 29 29 30 30 31 31 31 32 32 32 32 33 33 34 34 34 34 35 35 36 36 37 38 39 40 41 42 42 43 44 44 45 45 46
27 27 27 27 28 29 29 29 30 30 30 31 31 32 32 32 33 33 33 34 34 35 35 36 36 36 36 37 37 37 38 39 40 41 42 43 44 44 45 46 47 48 48
27 27 27 27 28 29 29 30 30 30 31 32 32 33 33 33 34 34 35 35 36 37 37 37 37 38 39 39 40 40 40 40 40 41 42 44 45 46 47 48 49 50 51
27 27 27 27 28 29 30 30 30 31 31 32 33 34 34 34 35 36 37 37 38 38 38 39 39 40 41 41 42 42 43 44 43 42 43 45 46 48 49 50 51 53 54
27 27 27 28 28 29 30 30 31 32 32 33 34 34 35 36 36 37 38 39 39 39 40 40 41 42 42 43 44 44 45 46 46 46 46 46 47 49 51 52 54 55 56
27 27 28 28 29 30 31 31 32 33 33 34 34 35 36 37 38 39 39 40 40 41 41 42 42 43 44 45 46 46 47 47 48 49 49 49 49 50 52 54 55 57 58